TimeMDT,TemperatureF,Dew PointF,Humidity,Sea Level PressureIn,VisibilityMPH,Wind Direction,Wind SpeedMPH,Gust SpeedMPH,PrecipitationIn,Events,Conditions,WindDirDegrees,DateUTC
12:53 AM,64.9,53.1,65,29.72,10.0,South,5.8,-,N/A,,Clear,180,2013-07-07 06:53:00
1:53 AM,66.9,51.1,57,29.72,10.0,South,9.2,-,N/A,,Clear,180,2013-07-07 07:53:00
2:53 AM,66.0,51.1,59,29.73,10.0,SSE,12.7,16.1,N/A,,Clear,160,2013-07-07 08:53:00
3:53 AM,64.0,52.0,65,29.78,10.0,East,8.1,-,N/A,,Clear,80,2013-07-07 09:53:00
4:53 AM,60.1,51.1,72,29.79,10.0,ENE,11.5,18.4,N/A,,Clear,70,2013-07-07 10:53:00
5:53 AM,57.9,52.0,81,29.80,10.0,East,6.9,-,N/A,,Clear,90,2013-07-07 11:53:00
6:53 AM,57.9,52.0,81,29.80,10.0,NE,8.1,-,N/A,,Clear,40,2013-07-07 12:53:00
7:53 AM,62.1,54.0,75,29.80,10.0,NE,9.2,-,N/A,,Clear,50,2013-07-07 13:53:00
8:53 AM,64.9,55.9,73,29.81,10.0,East,8.1,-,N/A,,Clear,90,2013-07-07 14:53:00
9:53 AM,72.0,57.9,61,29.81,10.0,Calm,Calm,-,N/A,,Clear,0,2013-07-07 15:53:00
10:53 AM,78.1,55.0,45,29.81,10.0,Variable,3.5,-,N/A,,Clear,0,2013-07-07 16:53:00
11:53 AM,81.0,57.9,45,29.81,10.0,Variable,3.5,-,N/A,,Clear,0,2013-07-07 17:53:00
12:53 PM,84.0,57.0,40,29.79,10.0,West,5.8,-,N/A,,Clear,280,2013-07-07 18:53:00
1:53 PM,89.1,51.1,27,29.76,10.0,Calm,Calm,-,N/A,,Clear,0,2013-07-07 19:53:00
2:53 PM,86.0,54.0,33,29.76,10.0,North,4.6,-,N/A,,Clear,350,2013-07-07 20:53:00
3:48 PM,80.6,53.6,39,29.91,10.0,WSW,9.2,16.1,0.00,Rain-Thunderstorm,Light Thunderstorms and Rain,240,2013-07-07 21:48:00
3:53 PM,78.1,55.0,45,29.78,10.0,WSW,12.7,16.1,0.00,Rain-Thunderstorm,Light Thunderstorms and Rain,250,2013-07-07 21:53:00
4:03 PM,82.4,39.2,21,29.90,10.0,Variable,5.8,38.0,0.00,Rain,Light Rain,0,2013-07-07 22:03:00
4:53 PM,88.0,48.0,25,29.71,10.0,SSW,6.9,-,0.00,,Clear,210,2013-07-07 22:53:00
5:53 PM,90.0,45.0,21,29.72,10.0,SE,8.1,-,N/A,,Clear,140,2013-07-07 23:53:00
6:53 PM,82.9,52.0,34,29.73,10.0,SE,11.5,-,N/A,,Clear,140,2013-07-08 00:53:00
7:53 PM,81.0,55.9,42,29.73,10.0,South,4.6,-,N/A,,Clear,170,2013-07-08 01:53:00
8:53 PM,78.1,52.0,40,29.74,10.0,SSE,8.1,-,N/A,,Clear,150,2013-07-08 02:53:00
9:53 PM,69.1,55.0,61,29.76,10.0,SSE,3.5,-,N/A,,Clear,150,2013-07-08 03:53:00
10:53 PM,72.0,48.0,43,29.75,10.0,South,6.9,-,N/A,,Clear,180,2013-07-08 04:53:00
11:53 PM,70.0,50.0,49,29.75,10.0,SSE,5.8,-,N/A,,Clear,150,2013-07-08 05:53:00